Terminal Aerodrome Forecast
Issued by NWS Rapid City, SD

Home | Current Version | Previous Version | Text Only | Print | Product List | Glossary Off
Versions: 1 2 3 4 5 6 7 8 9 10 11 12 13 14 15 16 17 18 19 20 21 22 23 24 25 26 27 28 29

625
FTUS43 KUNR 310447 AAC
TAFRAP
TAF AMD
KRAP 310447Z 3105/3124 10006KT P6SM VCTS BKN080CB OVC150
      TEMPO 3105/3107 VRB20G35KT 2SM TSRA BKN050CB
     FM310800 16006KT P6SM SCT100 OVC250
     FM311700 17016KT P6SM SCT250=

USA.gov is the U.S. government's official web portal to all federal, state and local government web resources and services.